Location: Newark
(54.6867°N, 2.8397°W)
Time: 07:10:40
(UTC+00:00)

ISS - Visible Passes

Search period start: 19 November 2019 00:00
Search period end: 29 November 2019 00:00
Orbit: 412 x 421 km, 51.6° (Epoch: 19 November)

Date Brightness Start Highest point End Pass type
(mag) Time Alt. Az. Time Alt. Az. Time Alt. Az.
23 Nov -1.2 18:16:09 10° S 18:16:38 11° SSE 18:16:38 11° SSE visible
24 Nov -1.0 19:02:37 10° SW 19:03:14 14° SSW 19:03:14 14° SSW visible
25 Nov -2.0 18:14:36 10° SSW 18:16:51 22° SSE 18:16:51 22° SSE visible
26 Nov -1.7 17:26:47 10° S 17:29:03 17° SSE 17:30:24 14° ESE visible
26 Nov -1.3 19:02:03 10° WSW 19:03:18 20° SW 19:03:18 20° SW visible
27 Nov -1.3 16:39:21 10° S 16:40:50 12° SE 16:42:19 10° ESE visible
27 Nov -2.7 18:13:47 10° SW 18:16:48 34° SSE 18:16:48 34° SSE visible
28 Nov -2.3 17:25:38 10° SW 17:28:32 28° SSE 17:30:16 18° ESE visible
28 Nov -1.5 19:01:39 10° WSW 19:03:09 24° WSW 19:03:09 24° WSW visible
